This is the latest recevied weather packets stored in our database for station/object VA7IS. If no packets are shown the sender has not sent any weather packets the latest 10 day(s).
| Time | Temp. | Humidity | Pressure | Rain* | Wind** | Luminosity | Snow |
|---|---|---|---|---|---|---|---|
| 1777429805 | 13.33° C | 7% | 1021.5 hPa | 0 mm | - | - | - |
| 1777428605 | 13.33° C | 16% | 1021.6 hPa | 0 mm | - | - | - |
| 1777427704 | 13.33° C | 14% | 1021.6 hPa | 0 mm | - | - | - |
| 1777427405 | 13.33° C | 15% | 1021.6 hPa | 0 mm | - | - | - |
| 1777426805 | 13.33° C | 16% | 1021.5 hPa | 0 mm | - | - | - |
| 1777424705 | 13.33° C | 34% | 1021.6 hPa | 0 mm | - | - | - |
| 1777421705 | 13.89° C | 43% | 1021.5 hPa | 0 mm | - | - | - |
| 1777419905 | 13.89° C | 48% | 1021.4 hPa | 0 mm | - | - | - |
| 1777419604 | 13.89° C | 46% | 1021.5 hPa | 0 mm | - | - | - |
| 1777416304 | 13.33° C | 46% | 1021.5 hPa | 0 mm | - | - | - |
| 1777415104 | 13.33° C | 37% | 1021.5 hPa | 0 mm | - | - | - |
| 1777414504 | 12.78° C | 36% | 1021.6 hPa | 0 mm | - | - | - |
| 1777414205 | 12.78° C | 22% | 1021.5 hPa | 0 mm | - | - | - |
| 1777411804 | 12.22° C | 11% | 1021.5 hPa | 0 mm | - | - | - |
| 1777409704 | 12.22° C | 7% | 1021.5 hPa | 0 mm | - | - | - |
| 1777409404 | 12.22° C | 18% | 1021.4 hPa | 0 mm | - | - | - |
| 1777408504 | 12.22° C | 1% | 1021.5 hPa | 0 mm | - | - | - |
| 1777407904 | 12.22° C | 1% | 1021.6 hPa | 0 mm | - | - | - |
| 1777406104 | 11.67° C | 1% | 1021.8 hPa | 0 mm | - | - | - |
| 1777405504 | 11.67° C | 1% | 1021.7 hPa | 0 mm | - | - | - |
| 1777405204 | 11.67° C | 1% | 1021.7 hPa | 0 mm | - | - | - |
| 1777404304 | 11.11° C | 1% | 1021.7 hPa | 0 mm | - | - | - |
| 1777404004 | 11.11° C | 1% | 1021.6 hPa | 0 mm | - | - | - |
| 1777401304 | 11.11° C | 1% | 1021.4 hPa | 0 mm | - | - | - |
| 1777400405 | 10.56° C | 1% | 1021.3 hPa | 0 mm | - | - | - |
* Rain latest hour (hover to see other rain measurements)
** Current wind speed in m/s (hover to see current wind gust speed)